Location: Hope
(40.9110°N, 74.9680°W)
Time: 13:31:25
(UTC-05:00)

FORTE - Pass Details

Date: 13 December 2021
Orbit: 785 x 822 km, 70.0° (Epoch: 22 January)

Event Time Altitude Azimuth Distance (km) Brightness Sun altitude
Exits shadow 05:35:02 21° 330° (NNW) 1,714 8.4 -18.4°
Drops below altitude 10° 05:37:58 10° 1° (N) 2,377 9.4 -17.9°
Sets 05:40:53 0° 15° (NNE) 3,317 10.3 -17.3°
